This demonstration page uses our WeatherBlox Daily Observations layout. Learn more.

Hourly Observations for May 7, 2018

Temp ( °F °C ) Dew Point ( °F °C ) Humidity (%) Winds ( mph kmh ) Pressure ( in mb ) Visibility ( mi km ) Precip ( " mm )
12:54 am 00:54 Clear 58 14.4 44 6.7 60 60 Calm 30.15 1021 10 16.0934 0 0
1:54 am 01:54 Clear 57 13.9 44 6.7 62 62 Calm 30.15 1021 10 16.0934 0 0
2:54 am 02:54 Clear 57 13.9 44 6.7 62 62 Calm 30.15 1021 10 16.0934 0 0
3:54 am 03:54 Clear 51 10.6 43 6.1 74 74 Calm 30.17 1022 10 16.0934 0 0
4:54 am 04:54 Clear 47 8.3 41 5 80 80 N 3 6 30.18 1022 10 16.0934 0 0
5:54 am 05:54 Clear 51 10.6 42 5.6 71 71 NNW 3 6 30.18 1022 10 16.0934 0 0
6:54 am 06:54 Sunny 46 7.8 41 5 83 83 N 8 13 30.19 1022 10 16.0934 0 0
7:54 am 07:54 Sunny 54 12.2 46 7.8 75 75 N 5 7 30.21 1023 10 16.0934 0 0
8:54 am 08:54 Sunny 63 17.2 46 7.8 54 54 SSE 3 6 30.21 1023 10 16.0934 0 0
9:54 am 09:54 Sunny 71 21.7 46 7.8 41 41 SSE 6 9 30.2 1023 10 16.0934 0 0
10:54 am 10:54 Sunny 75 23.9 44 6.7 33 33 SSE 12 19 30.18 1022 10 16.0934 0 0
11:54 am 11:54 Sunny 77 25 41 5 28 28 S 7 11 30.16 1021 10 16.0934 0 0
12:54 pm 12:54 Sunny 80 26.7 39 3.9 23 23 ESE 9 15 30.13 1020 10 16.0934 0 0
1:54 pm 13:54 Sunny 81 27.2 40 4.4 23 23 VRB 5 7 30.1 1019 10 16.0934 0 0
2:54 pm 14:54 Sunny 83 28.3 40 4.4 22 22 SE 10 17 30.07 1018 10 16.0934 0 0
3:54 pm 15:54 Sunny 83 28.3 39 3.9 21 21 E 7 11 30.05 1018 10 16.0934 0 0
4:54 pm 16:54 Sunny 84 28.9 41 5 22 22 SE 12 19 30.03 1017 10 16.0934 0 0
5:54 pm 17:54 Sunny 84 28.9 42 5.6 23 23 SSE 7 11 30.01 1016 10 16.0934 0 0
6:54 pm 18:54 Sunny 81 27.2 43 6.1 26 26 SE 9 15 29.98 1015 10 16.0934 0 0
7:54 pm 19:54 Sunny 78 25.6 43 6.1 29 29 SE 10 17 29.97 1015 10 16.0934 0 0
8:54 pm 20:54 Clear 75 23.9 43 6.1 32 32 SE 8 13 29.97 1015 10 16.0934 0 0
9:54 pm 21:54 Clear 74 23.3 44 6.7 34 34 SE 8 13 29.97 1015 10 16.0934 0 0
10:54 pm 22:54 Clear 72 22.2 45 7.2 38 38 SSE 9 15 29.96 1014 10 16.0934 0 0
11:54 pm 23:54 Clear 71 21.7 46 7.8 41 41 SSE 9 15 29.94 1014 10 16.0934 0 0

Powered by AerisWeather